Weather History for KJYL - June, 2013

Change the Weather History Date:

Thursday, June 13, 2013

  Actual Average (KSAV) Record (KSAV)
Temperature  
Mean Temperature 86 °F 80 °F  
Max Temperature 95 °F 90 °F 102 °F (2011)
Min Temperature 77 °F 70 °F 55 °F (1913)
Degree Days  
Heating Degree Days 0 0  
Month to date heating degree days 0  
Since 1 June heating degree days 0  
Since 1 July heating degree days 1812  
Cooling Degree Days 21 15  
Month to date cooling degree days 176  
Year to date cooling degree days 579  
Since 1 June cooling degree days 176  
Growing Degree Days 36 (Base 50)    
Moisture  
Dew Point 72 °F    
Average Humidity 62    
Maximum Humidity 89    
Minimum Humidity 38    
Precipitation  
Precipitation 0.00 in 0.20 in 3.28 in (2006)
Month to date precipitation 2.42  
Year to date precipitation 18.68  
Sea Level Pressure  
Sea Level Pressure 29.88 in    
Wind  
Wind Speed 3 mph (West)    
Max Wind Speed 13 mph    
Max Gust Speed 22 mph    
Visibility 9 miles    
Events      
T = Trace of Precipitation, MM = Missing Value Source: NWS Daily Summary

Daily Weather History Graph

Daily Weather History Graph

Search for Another Location

Airport or City:

Trip Planner

Search our weather history database for the weather conditions in past years. The results will help you decide how hot, cold, wet, or windy it might be!

Date:

Astronomy

Jun. 13, 2013 Rise Set
Actual Time 6:18 AM EDT 8:35 PM EDT
Civil Twilight 5:49 AM EDT 9:03 PM EDT
Nautical Twilight 5:14 AM EDT 9:38 PM EDT
Astronomical Twilight 4:36 AM EDT 10:16 PM EDT
Moon 10:41 AM EDT (6/13) 11:55 PM EDT (6/13)
Length of Visible Light 15h 13m
Length of Day
14h 16m
Waxing Crescent, 21% of the Moon is Illuminated
Jun 13
Waxing Crescent
Jun 16
First Quarter
Jun 23
Full
Jun 30
Last Quarter
Jul 8
New

Hourly Weather History & Observations

Time (EDT) Temp. Heat Index Dew Point Humidity Pressure Visibility Wind Dir Wind Speed Gust Speed Precip Events Conditions
12:15 AM 83.7 °F 91.7 °F 75.6 °F 76% 29.96 in 10.0 mi Calm Calm - N/A   Clear
12:35 AM 82.9 °F 90.8 °F 75.7 °F 79% 29.96 in 10.0 mi Calm Calm - N/A   Clear
12:55 AM 81.9 °F 88.9 °F 75.7 °F 82% 29.96 in 10.0 mi Calm Calm - N/A   Clear
1:15 AM 82.6 °F 89.9 °F 75.4 °F 79% 29.95 in 10.0 mi Calm Calm - N/A   Clear
1:35 AM 82.6 °F 89.7 °F 75.2 °F 78% 29.94 in 10.0 mi Calm Calm - N/A   Clear
1:55 AM 82.6 °F 89.7 °F 75.2 °F 78% 29.93 in 10.0 mi Calm Calm - N/A   Clear
2:15 AM 81.3 °F 87.6 °F 75.2 °F 82% 29.93 in 7.0 mi Calm Calm - N/A   Clear
2:35 AM 80.6 °F 86.2 °F 75.4 °F 84% 29.93 in 7.0 mi Calm Calm - N/A   Clear
2:55 AM 80.2 °F 85.5 °F 75.4 °F 85% 29.93 in 7.0 mi Calm Calm - N/A   Clear
3:15 AM 79.5 °F - 74.8 °F 86% 29.93 in 5.0 mi Calm Calm - N/A   Clear
3:35 AM 79.0 °F - 74.7 °F 87% 29.92 in 5.0 mi Calm Calm - N/A   Clear
3:55 AM 78.8 °F - 74.7 °F 87% 29.92 in 5.0 mi Calm Calm - N/A   Clear
4:15 AM 78.3 °F - 74.3 °F 88% 29.92 in 7.0 mi Calm Calm - N/A   Clear
4:35 AM 78.1 °F - 74.3 °F 88% 29.92 in 7.0 mi Calm Calm - N/A   Clear
4:55 AM 78.3 °F - 74.3 °F 88% 29.92 in 5.0 mi Calm Calm - N/A   Clear
5:15 AM 77.9 °F - 74.3 °F 89% 29.92 in 5.0 mi Calm Calm - N/A   Clear
5:35 AM 78.3 °F - 74.3 °F 88% 29.92 in 5.0 mi Calm Calm - N/A   Clear
5:55 AM 78.3 °F - 74.3 °F 88% 29.93 in 7.0 mi Calm Calm - N/A   Clear
6:15 AM 78.3 °F - 73.8 °F 86% 29.93 in 7.0 mi Calm Calm - N/A   Clear
6:35 AM 78.3 °F - 73.8 °F 86% 29.93 in 5.0 mi Calm Calm - N/A   Clear
6:55 AM 77.5 °F - 73.6 °F 88% 29.93 in 4.0 mi Calm Calm - N/A   Clear
7:15 AM 78.6 °F - 74.3 °F 87% 29.94 in 7.0 mi Calm Calm - N/A   Clear
7:35 AM 79.7 °F - 74.5 °F 84% 29.94 in 7.0 mi Calm Calm - N/A   Clear
7:55 AM 80.8 °F 86.3 °F 74.7 °F 82% 29.94 in 7.0 mi Calm Calm - N/A   Clear
8:15 AM 82.2 °F 88.5 °F 74.5 °F 77% 29.94 in 10.0 mi West 4.6 mph - N/A   Clear
8:35 AM 83.7 °F 91.0 °F 74.7 °F 74% 29.94 in 10.0 mi West 4.6 mph - N/A   Clear
8:55 AM 84.7 °F 92.8 °F 74.7 °F 72% 29.94 in 10.0 mi West 4.6 mph - N/A   Clear
9:15 AM 86.0 °F 94.6 °F 74.8 °F 69% 29.94 in 10.0 mi WNW 4.6 mph - N/A   Clear
9:35 AM 87.1 °F 95.9 °F 74.5 °F 66% 29.94 in 10.0 mi WNW 5.8 mph - N/A   Clear
9:55 AM 88.0 °F 96.5 °F 74.1 °F 63% 29.94 in 10.0 mi West 5.8 mph - N/A   Clear
10:15 AM 89.1 °F 97.5 °F 73.8 °F 60% 29.93 in 10.0 mi West 4.6 mph - N/A   Clear
10:35 AM 89.6 °F 97.7 °F 73.2 °F 58% 29.93 in 10.0 mi West 5.8 mph - N/A   Clear
10:55 AM 90.7 °F 99.0 °F 73.2 °F 56% 29.93 in 10.0 mi West 6.9 mph - N/A   Clear
11:15 AM 90.9 °F 98.3 °F 72.3 °F 54% 29.93 in 10.0 mi West 8.1 mph - N/A   Clear
11:35 AM 91.4 °F 98.4 °F 71.8 °F 52% 29.92 in 10.0 mi WSW 8.1 mph - N/A   Clear
11:55 AM 91.6 °F 98.2 °F 71.2 °F 51% 29.92 in 10.0 mi WNW 10.4 mph 17.3 mph N/A   Clear
12:15 PM 91.4 °F 97.8 °F 71.2 °F 51% 29.92 in 10.0 mi West 9.2 mph 16.1 mph N/A   Scattered Clouds
12:35 PM 92.7 °F 99.9 °F 71.4 °F 50% 29.91 in 10.0 mi WSW 9.2 mph 16.1 mph N/A   Scattered Clouds
12:55 PM 93.2 °F 99.4 °F 70.3 °F 47% 29.90 in 10.0 mi WNW 10.4 mph 20.7 mph N/A   Scattered Clouds
1:15 PM 93.6 °F 101.3 °F 72.0 °F 49% 29.89 in 10.0 mi WNW 11.5 mph - N/A   Scattered Clouds
1:35 PM 93.4 °F 99.7 °F 70.5 °F 47% 29.89 in 10.0 mi West 10.4 mph 16.1 mph N/A   Scattered Clouds
1:55 PM 93.6 °F 98.4 °F 68.9 °F 44% 29.88 in 10.0 mi WSW 11.5 mph 19.6 mph N/A   Scattered Clouds
2:15 PM 94.3 °F 99.8 °F 69.3 °F 44% 29.87 in 10.0 mi West 11.5 mph 18.4 mph N/A   Scattered Clouds
2:35 PM 95.0 °F 101.3 °F 69.8 °F 44% 29.86 in 10.0 mi West 10.4 mph - N/A   Scattered Clouds
2:55 PM 94.3 °F 99.8 °F 69.4 °F 44% 29.84 in 10.0 mi West 4.6 mph 17.3 mph N/A   Scattered Clouds
3:15 PM 94.6 °F 100.0 °F 69.3 °F 43% 29.84 in 10.0 mi WSW 12.7 mph 16.1 mph N/A   Clear
3:35 PM 95.2 °F 99.9 °F 68.4 °F 41% 29.83 in 10.0 mi West 8.1 mph 19.6 mph N/A   Clear
3:55 PM 95.4 °F 100.8 °F 68.9 °F 42% 29.82 in 10.0 mi WNW 11.5 mph 17.3 mph N/A   Clear
4:15 PM 95.5 °F 100.0 °F 68.0 °F 40% 29.82 in 10.0 mi West 11.5 mph 18.4 mph N/A   Clear
4:35 PM 95.5 °F 100.6 °F 68.2 °F 41% 29.81 in 10.0 mi West 5.8 mph 16.1 mph N/A   Clear
4:55 PM 95.7 °F 99.8 °F 67.3 °F 39% 29.81 in 10.0 mi West 10.4 mph 21.9 mph N/A   Clear
5:15 PM 95.4 °F 99.7 °F 67.3 °F 40% 29.81 in 10.0 mi WSW 9.2 mph 18.4 mph N/A   Clear
5:35 PM 95.4 °F 99.1 °F 67.1 °F 39% 29.80 in 10.0 mi West 9.2 mph 18.4 mph N/A   Clear
5:55 PM 95.2 °F 98.3 °F 66.2 °F 38% 29.79 in 10.0 mi West 6.9 mph 18.4 mph N/A   Clear
6:15 PM 95.2 °F 99.3 °F 67.6 °F 40% 29.79 in 10.0 mi West 5.8 mph - N/A   Clear
6:35 PM 95.0 °F 100.1 °F 68.7 °F 42% 29.79 in 10.0 mi West 5.8 mph - N/A   Clear
6:55 PM 94.3 °F 98.7 °F 67.8 °F 42% 29.79 in 10.0 mi West 5.8 mph - N/A   Clear
7:15 PM 93.6 °F 97.4 °F 67.6 °F 42% 29.80 in 10.0 mi West 5.8 mph - N/A   Clear
7:35 PM 92.7 °F 96.2 °F 67.1 °F 43% 29.80 in 10.0 mi West 6.9 mph - N/A   Clear
7:55 PM 91.0 °F 94.7 °F 67.8 °F 46% 29.81 in 10.0 mi West 3.5 mph - N/A   Clear
8:15 PM 89.8 °F 93.8 °F 68.2 °F 49% 29.81 in 10.0 mi Calm Calm - N/A   Clear
8:35 PM 88.7 °F 92.6 °F 68.4 °F 51% 29.81 in 10.0 mi Calm Calm - N/A   Clear
8:55 PM 86.2 °F 90.4 °F 69.4 °F 57% 29.81 in 10.0 mi WSW 3.5 mph - N/A   Clear
9:15 PM 86.2 °F 90.7 °F 69.8 °F 58% 29.81 in 10.0 mi SW 4.6 mph - N/A   Clear
9:35 PM 85.8 °F 90.4 °F 70.0 °F 59% 29.81 in 10.0 mi SW 4.6 mph - N/A   Clear
9:55 PM 86.0 °F 90.7 °F 70.2 °F 59% 29.79 in 10.0 mi SW 4.6 mph - N/A   Clear
10:15 PM 86.0 °F 90.7 °F 70.0 °F 59% 29.79 in 10.0 mi SW 5.8 mph - N/A   Clear
10:35 PM 86.4 °F 90.7 °F 69.6 °F 57% 29.80 in 10.0 mi WSW 6.9 mph - N/A   Clear
10:55 PM 86.2 °F 90.4 °F 69.4 °F 57% 29.79 in 10.0 mi WSW 6.9 mph - N/A   Clear
11:15 PM 86.2 °F 90.4 °F 69.4 °F 57% 29.79 in 10.0 mi WSW 6.9 mph - N/A   Clear
11:35 PM 86.0 °F 90.1 °F 69.3 °F 57% 29.78 in 10.0 mi WSW 10.4 mph - N/A   Clear
11:55 PM 86.4 °F 90.4 °F 68.9 °F 56% 29.76 in 10.0 mi WSW 9.2 mph 16.1 mph N/A   Clear